Theta_e
308 308 318 325 336 335 340 339 333 330 327 325 324 323 323 324 326 326 337 339 337 331 325 324 323 322 322 324 325 326 327 328 330 332 336 337 334 329 333 334 333 331 331 330 330 329 330 330 333
308 312 324 331 340 346 343 336 335 327 325 324 324 321 323 329 329 328 336 336 337 331 325 324 323 324 324 325 327 329 330 332 332 336 338 337 337 336 335 335 335 334 334 333 332 331 330 330 329
313 322 326 338 340 344 343 336 333 328 323 324 325 324 325 327 328 327 329 335 336 332 329 328 327 326 326 327 329 331 332 332 336 338 337 337 337 336 336 336 336 335 335 335 334 333 332 331 330
327 333 332 338 338 336 338 334 331 325 324 323 324 327 326 327 329 329 332 333 332 331 331 331 330 329 328 329 330 331 333 338 338 339 338 337 336 335 334 335 335 334 334 333 334 335 333 332 331
330 331 336 336 337 335 332 331 326 325 324 323 323 327 326 327 330 329 332 332 331 333 333 336 333 331 331 330 330 336 339 339 338 338 338 336 335 334 334 334 333 333 333 333 334 334 335 331 330
333 326 330 331 331 330 328 327 329 327 325 323 325 326 325 328 330 329 330 332 331 333 336 335 330 327 326 323 322 320 321 326 334 335 334 332 332 333 333 332 332 332 332 332 333 332 333 332 331
332 331 333 331 333 329 329 328 329 326 327 323 322 327 327 325 328 328 327 328 329 331 330 328 326 326 323 322 321 321 322 323 323 324 325 325 329 330 330 330 330 330 331 331 331 331 332 332 331
328 327 331 328 330 328 327 325 324 327 327 323 323 328 327 324 327 327 326 326 326 326 325 325 325 323 323 323 323 324 326 326 325 327 326 328 326 327 328 329 329 329 329 330 330 331 331 331 331
327 330 331 330 329 328 327 325 324 325 326 325 323 324 326 327 326 326 326 326 327 327 325 325 324 324 324 325 325 327 327 326 328 328 329 327 326 325 324 325 327 330 331 331 331 332 332 330 330
329 330 334 331 328 327 327 326 325 323 322 324 325 326 327 326 324 323 323 323 324 326 327 326 325 325 326 326 327 329 328 328 329 327 326 323 324 325 324 326 327 329 329 329 331 331 332 332 330
329 332 331 331 329 327 327 327 325 322 322 322 324 326 325 324 323 322 323 324 323 324 324 323 324 324 324 327 327 328 327 328 327 326 324 324 325 324 324 324 325 325 326 326 328 330 332 330 330
330 330 331 330 329 327 327 327 327 323 322 322 323 325 324 323 322 320 321 321 322 322 323 322 322 324 325 326 328 328 328 328 328 327 325 325 327 325 324 325 326 326 326 326 327 328 328 329 330
330 330 330 329 327 327 327 327 326 323 323 322 323 323 324 323 321 322 322 322 322 322 323 324 325 326 324 325 324 326 326 327 326 327 327 326 327 327 325 325 325 325 326 326 326 327 328 328 329
329 330 329 329 328 328 328 328 324 325 324 323 321 322 321 320 320 320 320 321 322 324 325 325 326 325 325 323 327 328 328 328 329 328 327 327 326 327 326 324 324 325 324 326 326 326 326 326 326
322 326 328 328 325 324 325 325 325 324 323 323 320 319 321 321 320 320 321 322 323 324 325 326 326 326 325 325 328 329 329 329 329 328 328 327 326 326 324 324 324 324 324 324 325 325 325 326 326
320 320 322 322 323 324 323 327 325 324 323 323 322 320 320 318 321 321 321 322 323 323 326 326 326 327 326 326 329 330 330 330 330 330 329 328 326 325 323 321 325 324 324 323 324 325 325 325 326
318 321 321 322 323 325 324 326 326 324 323 324 323 322 322 320 320 321 322 323 323 324 325 326 327 327 327 328 330 329 329 330 330 331 330 329 327 322 319 321 326 325 325 323 323 324 325 326 327
320 321 323 324 324 324 325 325 325 324 324 324 322 323 323 321 321 322 323 323 323 325 326 327 328 328 328 329 328 329 329 330 331 330 329 328 326 322 321 325 326 325 325 323 323 323 323 324 326
321 321 323 323 324 325 325 326 326 325 323 323 321 321 322 321 322 323 324 323 323 325 326 328 328 328 330 330 328 330 329 330 329 329 329 328 328 327 325 327 326 325 324 323 323 323 323 325 326
319 322 322 322 323 323 323 324 326 325 324 322 322 322 321 323 324 325 325 324 324 325 327 328 329 329 330 328 329 331 330 330 330 331 330 329 329 328 327 326 326 325 324 323 323 324 326 326 328
319 320 324 324 324 323 323 325 324 326 325 324 323 322 323 323 324 325 324 323 324 326 327 329 330 330 328 329 330 329 330 330 330 330 329 329 327 327 326 326 326 325 325 323 324 325 326 328 329
320 321 323 326 326 325 323 326 322 324 324 323 322 321 323 323 324 325 324 322 324 325 326 329 329 329 327 328 328 332 331 330 330 329 329 328 326 326 326 325 325 324 325 325 324 326 326 327 329
321 320 322 324 325 323 324 322 321 323 325 324 322 322 322 322 323 324 324 323 324 325 327 328 329 327 329 329 330 332 329 330 329 329 328 327 327 327 327 326 326 325 326 326 326 326 326 328 328
320 321 322 322 323 326 324 324 326 323 324 324 322 324 322 322 322 324 325 324 324 327 326 329 327 327 329 330 330 330 328 328 327 328 327 327 327 327 327 327 326 326 326 327 326 327 328 325 329
320 320 323 323 324 327 323 325 325 324 324 323 320 322 322 323 324 326 325 323 324 325 327 327 327 328 328 328 330 329 327 326 325 327 328 327 327 327 327 327 326 325 327 327 327 325 328 326 330
315 316 324 326 326 324 323 325 324 322 323 323 322 323 323 323 325 326 325 323 323 325 326 326 328 325 325 327 329 330 328 325 325 326 327 327 327 327 327 326 326 326 326 328 328 328 329 327 330
315 318 317 322 323 323 323 324 326 323 323 326 326 325 324 323 325 325 324 322 321 324 325 325 328 326 324 328 329 330 328 326 324 326 327 326 326 326 326 326 325 325 327 327 328 329 329 330 332
315 317 320 319 325 325 324 325 326 323 324 328 327 325 324 324 325 325 323 321 321 324 324 324 326 326 325 328 328 330 330 329 328 327 327 325 326 327 327 328 327 326 328 328 328 328 330 331 332
314 316 320 320 320 325 323 323 321 321 321 329 326 325 324 325 325 325 322 322 321 323 321 321 325 325 326 327 328 329 331 330 330 327 326 326 327 327 327 328 329 329 329 328 328 329 330 331 331
315 316 320 323 322 321 321 322 322 321 322 327 326 326 324 324 325 324 321 321 321 321 320 323 326 324 324 326 326 328 331 331 330 328 326 327 327 327 328 329 329 329 329 328 328 328 327 329 328
Wind_Speed
8 9 7 2 2 3 3 6 4 7 2 4 3 8 7 1 3 3 15 24 27 31 33 30 26 23 20 17 16 16 14 13 12 11 11 13 12 11 11 11 10 8 8 9 11 12 12 11 10
10 10 2 1 2 1 5 7 4 5 5 4 4 7 4 1 1 7 17 22 26 29 29 27 24 21 19 17 16 15 14 13 12 12 12 13 14 15 14 14 12 10 11 11 12 13 13 13 12
9 2 2 3 3 5 5 6 10 4 8 6 2 4 7 6 2 19 11 29 27 26 25 23 22 20 17 15 14 14 14 13 12 13 13 12 13 15 16 16 15 15 15 14 14 13 14 15 14
3 2 3 2 8 8 7 11 7 1 4 3 3 6 3 6 16 14 31 29 25 24 24 23 20 17 16 14 13 13 13 14 14 15 14 14 15 17 18 17 17 17 17 17 17 16 15 16 16
1 2 2 4 7 7 10 10 7 3 3 2 2 2 1 3 13 27 30 27 25 26 23 21 18 17 14 13 11 10 13 14 15 15 15 15 17 18 19 18 18 19 19 19 19 19 18 18 17
2 2 1 5 5 5 6 9 4 2 5 3 6 9 7 12 26 28 26 26 23 25 24 22 20 15 11 9 8 8 11 13 15 15 16 18 19 19 19 19 20 21 21 21 22 22 21 20 18
4 3 5 5 14 10 1 6 6 8 3 5 10 7 2 6 27 27 23 23 22 24 24 22 18 13 9 9 9 10 9 10 10 11 14 15 15 17 20 21 22 23 25 25 24 24 23 22 20
5 4 4 6 3 10 4 3 6 4 8 0 6 7 5 8 26 24 23 23 20 19 18 17 16 12 12 12 11 12 12 11 10 10 12 10 10 12 13 17 19 20 23 24 24 23 24 24 21
5 2 8 7 7 10 16 3 7 5 3 4 5 7 9 29 26 27 23 21 20 21 19 20 17 16 14 12 10 11 11 11 10 9 9 10 13 15 13 13 14 15 19 21 21 21 22 23 20
6 6 12 14 8 10 15 7 12 5 7 5 3 3 16 31 30 23 18 20 24 25 24 21 18 17 15 11 9 10 9 9 13 11 11 12 13 14 13 14 14 15 13 17 19 19 19 21 21
8 16 19 19 16 15 18 19 10 6 6 8 5 7 12 12 15 18 21 28 32 30 22 20 20 16 12 11 6 8 10 10 12 12 13 11 12 13 12 11 12 13 13 13 15 17 19 22 20
6 14 21 23 21 18 20 20 19 8 9 9 7 16 10 10 13 14 19 16 23 26 26 23 18 13 8 4 5 8 11 9 10 13 13 12 14 13 12 11 12 12 11 11 13 17 20 21 20
13 25 21 19 17 21 21 19 19 10 11 10 3 13 17 16 13 24 27 24 30 29 27 23 17 10 3 3 3 5 6 11 13 14 12 12 13 15 13 13 12 11 11 11 12 16 20 21 19
9 16 20 18 20 22 23 23 8 13 10 10 10 16 14 15 17 13 23 29 33 31 27 21 15 8 3 3 4 5 7 10 13 14 15 14 14 16 15 13 12 13 12 11 11 15 19 18 18
13 21 20 19 14 18 16 19 14 12 10 10 12 11 15 18 16 20 32 35 36 30 26 21 14 8 6 1 3 7 11 13 15 15 14 14 13 14 15 12 13 14 11 13 14 16 18 18 19
6 4 9 11 15 21 7 24 17 13 11 12 12 10 10 11 17 23 33 37 34 30 26 19 11 9 7 3 7 11 13 15 16 15 15 15 14 16 15 12 13 13 12 13 16 17 17 17 18
5 12 17 13 11 13 9 21 19 15 14 16 12 10 11 12 6 18 33 37 35 30 25 20 13 11 9 6 8 12 16 17 16 15 14 15 15 13 14 13 12 12 12 14 18 19 17 15 16
11 11 5 17 19 8 13 17 20 20 17 18 12 10 10 7 12 22 29 33 31 26 22 18 16 11 8 6 7 11 9 12 12 12 11 12 12 11 11 13 12 10 11 12 17 19 16 16 16
8 7 9 20 24 5 12 15 23 15 9 14 10 10 10 9 6 17 27 33 28 24 21 18 14 11 8 5 7 8 9 10 11 10 10 9 10 9 10 10 9 9 9 10 14 15 15 16 12
12 14 17 20 23 6 17 19 22 12 7 9 12 11 7 7 10 12 23 28 27 24 21 16 13 11 8 4 6 9 8 8 10 9 10 9 8 10 10 11 8 7 8 10 13 13 11 11 13
16 18 17 18 21 16 11 16 9 6 3 3 7 4 8 17 15 14 13 21 27 24 21 17 14 10 7 3 1 2 5 6 5 5 6 6 5 4 7 8 9 8 8 11 12 13 12 11 12
19 17 19 16 12 8 6 7 6 6 5 5 8 7 10 14 12 15 13 15 26 24 20 17 14 12 7 3 0 2 4 6 5 2 2 2 3 5 4 6 8 7 6 10 12 14 16 13 14
18 18 18 20 13 8 22 4 8 6 6 9 9 6 10 17 19 16 14 21 26 22 20 17 16 10 10 5 3 1 4 4 4 3 3 3 4 5 5 8 7 7 4 11 14 17 17 17 18
23 12 12 12 9 11 16 7 14 5 8 5 2 7 9 9 9 9 17 24 23 21 19 20 15 12 8 8 5 2 3 7 7 4 3 1 5 7 8 7 9 5 5 10 10 13 15 13 16
15 10 4 3 4 11 10 7 11 6 8 8 8 9 8 9 12 14 14 10 19 21 22 18 13 12 9 6 9 1 3 7 7 3 2 2 6 11 12 10 9 6 8 6 8 9 12 11 13
20 14 8 7 5 4 6 6 9 9 4 7 7 10 11 10 10 13 12 13 19 25 23 18 14 12 10 8 8 4 3 7 7 4 3 3 7 10 11 10 9 7 7 6 6 9 10 11 16
13 15 21 4 4 2 4 6 9 5 6 6 10 12 11 11 12 14 12 16 21 25 23 19 15 13 9 11 8 5 5 5 6 6 6 7 9 9 9 9 10 8 9 8 9 11 11 14 16
26 5 7 2 10 6 4 4 5 1 7 6 8 10 8 8 11 12 11 14 24 27 23 18 16 16 12 10 8 7 7 5 6 6 7 9 8 8 9 10 10 11 10 13 14 14 15 17 20
11 10 6 5 6 8 3 7 8 13 10 15 13 13 13 14 14 13 10 18 26 26 21 16 16 16 15 10 8 8 7 5 6 6 8 8 8 8 9 10 13 14 15 18 18 19 18 18 20
14 14 10 9 5 2 6 10 3 12 13 16 11 12 11 12 13 12 11 16 21 25 21 17 17 16 15 11 7 7 8 8 10 8 10 9 9 11 10 13 14 17 21 20 22 20 18 18 18
Wind_Direction
172 146 125 70 39 62 266 257 236 292 309 229 197 118 149 102 182 220 165 172 178 175 181 185 189 192 193 194 197 200 204 207 212 219 223 227 233 242 241 236 234 241 243 249 256 255 252 255 260
165 133 101 55 93 97 262 244 286 242 243 214 129 111 88 230 119 131 152 183 178 178 180 186 191 195 197 202 206 209 212 217 228 230 230 232 237 242 245 244 244 246 249 247 248 255 255 251 252
161 134 76 160 182 205 213 248 247 252 218 206 137 80 142 174 140 159 179 166 170 177 185 189 192 195 201 208 213 220 227 236 238 237 238 240 245 247 246 248 248 247 249 250 250 249 251 253 249
168 51 321 177 234 262 240 260 280 272 341 309 135 78 53 250 161 173 156 162 167 177 187 189 187 190 198 207 223 233 245 242 242 242 240 243 251 253 255 250 249 251 250 253 251 249 246 246 248
291 71 265 261 251 256 278 265 242 344 310 30 75 165 62 241 176 156 162 168 175 177 182 180 178 187 198 218 228 236 247 249 247 248 248 248 251 253 254 254 255 253 253 253 248 247 243 237 239
11 90 309 254 247 260 278 260 210 210 265 166 93 143 189 165 153 159 164 172 175 174 176 177 183 190 198 215 223 236 246 248 254 256 258 258 255 255 256 255 255 255 252 248 245 246 241 234 233
141 100 238 266 285 302 214 315 292 248 212 231 156 137 252 194 165 165 162 159 156 163 173 183 187 191 206 217 225 233 246 252 250 261 275 271 263 261 258 257 256 256 254 251 247 246 243 232 231
156 121 269 243 237 279 262 336 297 347 276 147 170 170 195 216 174 171 160 160 166 182 191 195 197 201 207 214 224 228 231 236 256 274 281 268 276 271 268 263 256 255 255 252 248 247 243 232 224
142 146 255 237 227 253 285 4 297 271 263 252 220 154 211 176 169 158 156 167 175 185 199 200 195 201 199 204 211 225 222 227 251 256 254 266 270 271 270 267 268 268 260 250 247 245 237 225 221
167 188 236 235 254 276 288 282 292 304 318 292 304 8 137 154 160 163 175 185 193 191 197 197 198 197 187 197 210 219 225 247 246 244 268 285 265 270 272 277 275 275 283 257 246 239 223 218 220
203 226 242 266 261 265 271 285 279 278 293 269 240 193 158 157 165 173 189 193 199 195 187 189 180 174 175 178 201 205 240 263 254 259 281 276 269 267 266 274 265 274 274 267 244 223 216 215 217
267 242 243 253 263 268 268 277 275 237 246 252 277 187 164 166 180 185 197 190 195 187 175 170 182 181 192 232 231 244 262 269 255 273 274 261 264 271 265 259 267 267 266 267 238 226 215 211 216
234 242 246 254 263 265 269 262 260 248 263 271 160 169 183 186 189 195 196 188 161 161 167 169 172 181 206 258 232 243 262 271 279 279 268 262 265 260 268 259 259 252 253 257 240 227 217 215 215
241 248 253 259 262 266 265 270 246 251 250 269 175 201 192 186 195 179 176 170 170 165 166 170 174 176 157 206 239 282 285 290 278 276 272 267 269 254 250 259 252 250 253 245 241 226 222 220 225
251 257 263 260 250 258 269 269 250 253 253 250 210 194 198 202 184 187 177 170 173 172 169 170 171 166 168 237 291 293 285 284 283 278 270 263 263 242 248 264 256 251 254 245 236 233 231 231 230
301 268 253 245 259 261 201 269 275 258 235 237 225 227 206 204 200 191 174 175 174 168 168 165 164 176 183 252 277 288 289 276 278 275 268 262 257 253 254 259 256 250 251 241 228 225 228 229 232
229 257 260 278 244 260 220 267 269 274 230 233 228 225 227 222 171 174 180 176 170 166 162 158 165 173 184 228 262 286 286 277 277 270 260 261 259 255 253 254 254 250 248 241 223 222 222 224 227
218 238 225 255 257 257 267 265 270 265 241 225 217 228 233 203 201 175 169 165 161 161 155 159 163 169 180 223 269 287 275 276 274 268 258 256 254 250 246 250 242 248 244 237 216 218 219 226 235
238 236 247 262 268 279 269 272 271 260 243 221 218 233 235 198 142 154 159 162 157 153 153 162 165 161 177 225 292 262 267 296 272 260 258 260 255 255 244 254 234 241 235 223 203 209 213 223 228
230 242 248 271 269 261 274 281 286 266 228 213 214 233 217 138 144 142 158 163 160 158 162 167 167 168 187 229 276 276 296 298 291 273 254 262 270 257 237 243 238 227 216 195 192 197 193 213 217
228 231 245 244 277 278 277 280 265 296 239 240 275 269 146 165 158 160 166 161 160 161 168 168 170 167 168 147 121 249 306 312 327 279 262 253 255 222 211 234 225 204 207 195 191 193 199 190 197
235 227 241 251 255 257 141 281 276 242 267 257 274 216 183 172 164 161 161 158 161 166 169 170 169 162 162 173 164 283 307 314 333 287 297 188 152 170 191 191 183 186 202 202 197 194 197 198 183
230 224 235 246 248 261 280 292 267 273 275 271 289 211 173 175 167 163 161 157 167 166 166 168 160 158 171 209 218 260 348 13 106 110 120 165 169 180 165 175 177 157 141 181 185 184 199 197 183
233 241 240 257 244 254 244 214 264 222 228 254 230 193 178 154 139 125 141 159 163 165 162 159 160 166 187 215 220 90 58 101 111 130 114 168 177 178 163 165 165 157 160 178 179 198 183 180 177
216 203 250 288 197 240 214 195 240 226 229 223 197 196 158 147 141 146 153 152 160 163 159 160 164 178 199 225 166 126 129 108 99 119 92 83 141 153 161 162 157 154 141 157 185 181 176 181 177
221 212 202 184 221 234 208 226 257 224 236 207 153 155 140 139 147 152 157 162 162 163 162 162 172 191 202 191 169 168 149 115 103 100 102 100 138 148 161 168 162 172 161 141 165 170 170 178 186
222 211 224 215 320 130 211 282 319 262 139 132 132 145 150 153 153 151 163 162 160 165 168 169 183 197 195 173 168 188 152 143 135 99 91 111 135 142 161 173 179 173 157 156 150 152 150 168 165
220 141 229 305 205 213 265 243 227 160 155 151 157 157 149 139 144 158 164 160 165 170 171 177 192 193 180 178 191 188 154 149 160 122 121 135 133 148 157 163 172 170 162 156 157 146 147 143 132
201 200 198 179 166 192 203 262 195 200 180 172 173 167 162 164 160 163 162 167 169 171 172 176 189 188 177 188 202 177 157 146 145 142 146 142 131 144 156 159 154 153 152 151 153 143 145 126 121
211 204 182 215 231 166 157 257 222 213 173 168 172 170 170 159 158 160 161 162 163 172 174 173 175 178 173 165 159 152 148 134 136 144 157 149 133 136 141 146 147 147 153 151 150 146 139 129 129